TimePST,TemperatureF,Dew PointF,Humidity,Sea Level PressureIn,VisibilityMPH,Wind Direction,Wind SpeedMPH,Gust SpeedMPH,PrecipitationIn,Events,Conditions,WindDirDegrees,DateUTC
12:56 AM,1.0,-2.0,87,30.37,10.0,Calm,Calm,-,N/A,,Clear,0,2012-12-31 08:56:00
1:56 AM,-0.0,-4.0,83,30.35,10.0,Calm,Calm,-,N/A,,Clear,0,2012-12-31 09:56:00
2:56 AM,-4.0,-7.1,87,30.38,10.0,Calm,Calm,-,N/A,,Clear,0,2012-12-31 10:56:00
3:56 AM,-4.0,-8.0,83,30.37,10.0,Calm,Calm,-,N/A,,Clear,0,2012-12-31 11:56:00
4:56 AM,-6.0,-9.9,83,30.37,10.0,Calm,Calm,-,N/A,,Clear,0,2012-12-31 12:56:00
5:56 AM,-7.1,-11.0,83,30.38,10.0,Calm,Calm,-,N/A,,Clear,0,2012-12-31 13:56:00
6:56 AM,-8.0,-11.9,83,30.41,10.0,Calm,Calm,-,N/A,,Clear,0,2012-12-31 14:56:00
7:56 AM,-7.1,-11.0,83,30.38,10.0,Calm,Calm,-,N/A,,Clear,0,2012-12-31 15:56:00
8:56 AM,6.1,1.0,80,30.35,8.0,Calm,Calm,-,N/A,,Clear,0,2012-12-31 16:56:00
9:56 AM,18.0,14.0,84,30.35,10.0,Calm,Calm,-,N/A,,Clear,0,2012-12-31 17:56:00
10:56 AM,23.0,16.0,74,30.33,10.0,Calm,Calm,-,N/A,,Clear,0,2012-12-31 18:56:00
11:56 AM,24.1,17.1,75,30.32,10.0,ENE,3.5,-,N/A,,Clear,60,2012-12-31 19:56:00
12:56 PM,25.0,17.1,72,30.32,10.0,Calm,Calm,-,N/A,,Clear,0,2012-12-31 20:56:00
1:56 PM,27.0,18.0,69,30.33,10.0,Calm,Calm,-,N/A,,Mostly Cloudy,0,2012-12-31 21:56:00
2:56 PM,27.0,18.0,69,30.35,10.0,Calm,Calm,-,N/A,,Overcast,0,2012-12-31 22:56:00
3:56 PM,27.0,17.1,66,30.35,10.0,Calm,Calm,-,N/A,,Overcast,0,2012-12-31 23:56:00
4:56 PM,23.0,18.0,81,30.39,10.0,Calm,Calm,-,N/A,,Overcast,0,2013-01-01 00:56:00
5:22 PM,21.2,19.4,93,30.21,10.0,Calm,Calm,-,N/A,,Overcast,0,2013-01-01 01:22:00
5:32 PM,21.2,19.4,93,30.22,10.0,Calm,Calm,-,N/A,,Overcast,0,2013-01-01 01:32:00
5:56 PM,21.0,19.9,96,30.43,7.0,Calm,Calm,-,N/A,,Overcast,0,2013-01-01 01:56:00
6:33 PM,19.4,19.4,100,30.24,1.8,West,4.6,-,N/A,,Overcast,270,2013-01-01 02:33:00
6:50 PM,19.4,19.4,100,30.23,3.0,Calm,Calm,-,N/A,,Overcast,0,2013-01-01 02:50:00
6:56 PM,19.9,19.0,96,30.44,3.0,Calm,Calm,-,N/A,,Overcast,0,2013-01-01 02:56:00
7:16 PM,19.4,19.4,100,30.23,2.5,Calm,Calm,-,N/A,,Overcast,0,2013-01-01 03:16:00
7:26 PM,19.4,19.4,100,30.24,5.0,Calm,Calm,-,N/A,,Overcast,0,2013-01-01 03:26:00
7:56 PM,19.9,18.0,92,30.45,5.0,Calm,Calm,-,N/A,,Overcast,0,2013-01-01 03:56:00
8:56 PM,19.9,18.0,92,30.42,10.0,Calm,Calm,-,N/A,,Overcast,0,2013-01-01 04:56:00
9:22 PM,19.4,17.6,93,30.25,10.0,Calm,Calm,-,N/A,,Overcast,0,2013-01-01 05:22:00
9:56 PM,17.1,16.0,96,30.40,10.0,Calm,Calm,-,N/A,,Mostly Cloudy,0,2013-01-01 05:56:00
10:10 PM,15.8,14.0,93,30.27,10.0,Calm,Calm,-,N/A,,Scattered Clouds,0,2013-01-01 06:10:00
10:56 PM,12.0,10.0,92,30.44,10.0,Calm,Calm,-,N/A,,Clear,0,2013-01-01 06:56:00
11:14 PM,10.4,8.6,92,30.30,10.0,Calm,Calm,-,N/A,,Scattered Clouds,0,2013-01-01 07:14:00
11:23 PM,10.4,8.6,92,30.30,10.0,Calm,Calm,-,N/A,,Mostly Cloudy,0,2013-01-01 07:23:00
11:56 PM,12.0,10.0,92,30.47,10.0,Calm,Calm,-,N/A,,Overcast,0,2013-01-01 07:56:00